Location: Devore Heights
(34.2372°N, 117.4156°W)
Time: 03:26:16
(UTC+00:00)

SR - Pass Details

Date: 16 September 2024
Orbit: 578 x 855 km, 66.7° (Epoch: 02 October)

Event Time Altitude Azimuth Distance (km) Brightness Sun altitude
Rises 20:42:41 0° 223° (SW) 2,834 ? 55.2°
Reaches altitude 10° 20:45:04 10° 231° (SW) 1,911 ? 55.0°
Maximum altitude 20:49:02 38° 300° (WNW) 891 ? 54.6°
Drops below altitude 10° 20:52:59 10° 10° (N) 1,894 ? 54.2°
Sets 20:55:21 0° 18° (NNE) 2,805 ? 53.9°
